Hourly Data Report for January 20, 2022

BANCROFT AUTO
ONTARIO
Current Station Operator: ECCC - MSC

45°04'17.000" N
77°52'44.000" W
330.70 m
616I001
71294
WRK

Download Data

Hourly Data (January 2022)
Hourly Data Report for January 20, 2022
TIME
LST
Temp Definition
°C
Dew Point Definition
°C
Rel Hum Definition
%
Precip. Amount Definition
mm

Wind Dir Definition
10's deg

Wind Spd Definition
km/h
Visibility Definition
km
Stn Press Definition
kPa
Hmdx Definition


Wind Chill Definition


Weather Definition


00:00 -13.5 -18.1 68 0.0 31 12   97.67   -20 LegendNANA
01:00 -16.1 -20.9 66 0.0 32 15   97.80   -24 LegendNANA
02:00 -17.8 -22.2 69 0.0 31 15   97.94   -26 LegendNANA
03:00 -19.2 -23.1 71 0.0 33 9   98.11   -26 LegendNANA
04:00 -20.1 -23.8 73 0.0 33 7   98.18   -26 LegendNANA
05:00 -21.2 -24.5 75 0.0 32 8   98.26   -28 LegendNANA
06:00 -22.0 -25.1 76 0.0 34 7   98.33   -28 LegendNANA
07:00 -23.5 -26.0 80 0.0 1 2   98.44   -25 LegendNANA
08:00 -24.9 -27.2 81 0.0 32 5   98.53   -30 LegendNANA
09:00 -22.6 -26.4 71 0.0 33 10   98.61   -30 LegendNANA
10:00 -21.5 -26.8 62 0.0 1 7   98.71   -27 LegendNANA
11:00 -19.8 -26.3 56 0.0 2 8   98.75   -26 LegendNANA
12:00 -17.9 -25.5 51 0.0 33 6   98.75   -23 LegendNANA
13:00 -16.8 -25.5 47 0.0 34 6   98.73   -21 LegendNANA
14:00 -15.5 -24.9 44 0.0 31 7   98.74   -20 LegendNANA
15:00 -14.7 -25.0 41 0.0 27 5   98.77   -18 LegendNANA
16:00 -15.7 -23.9 49 0.0 29 4   98.82   -19 LegendNANA
17:00 -19.3 -24.5 64 0.0   0   98.85     LegendNANA
18:00 -22.8 -25.7 77 0.0   0   98.92     LegendNANA
19:00 -25.3 -27.6 81 0.0   0   99.00     LegendNANA
20:00 -27.5 -29.9 80 0.0 0 1   99.06   -29 LegendNANA
21:00 -28.7 -31.4 77 0.0   0   99.14     LegendNANA
22:00 -29.9 -32.8 76 0.0 0 1   99.19   -31 LegendNANA
23:00 -31.1 -33.8 77 0.0 0 1   99.21   -32 LegendNANA

Notes on Data Quality.

Legend

  • E = Estimated
  • M = Missing
  • NA = Not Available*
  • [empty] = Indicates an unobserved value
Date modified: